Showing default

EXPRESS AMU-7, 50001

Orbit data source: Space-Track

EXPRESS AMU-7, 50001 is a payload satellite owned by KosSvyaz (CIS) in GEO that was launched on Mon, 13 Dec 2021 UTC via a PROTON-M/BRIZ-M launch vehicle from the Tyuratam Missile And Space Complex (TTMTR). Payload-class satellites include a variety of spacecraft equipped with specific instruments for various scientific and technological missions. These include communications satellites like Starlink; space stations such as the ISS; scientific satellites like the Hubble; Earth observation satellites from companies like Planet Labs, Umbra, and HawkEye 360; GPS; miniature CubeSats for education and research; and military/defense satellites.

Not visible in the next 10 days
Identifier
50001, 2021-123A
Orbit
GEO
Country
Flag of CISCIS
Related business
Manufacturer
Resehetnev ISS
Mission
Operational Commercial Communications
Bus & Motor
EKSPRESS-1000N, AOCS
Mass
1,980 kg wet, ~1,500 kg dry
Launch date (UTC)
2021-12-13 (5 years ago)
Launch vehicle
PROTON-M/BRIZ-M
Launch site
Tyuratam Missile And Space Complex (TTMTR)
Object type
Payload
Rocket body
Debris
Shape & HBR
Box + 2 Pan, 7.5 m
Radar Cross Section
16.987 m², Large (>1 m²)

Expand to show TLE details & history
Last TLE update: 13 hours ago

TLE from 13 hours ago
0 EXPRESS AMU-7
1 50001U 21123A   26172.91787103 -.00000242  00000-0  00000+0 0  9997
2 50001   0.0163 288.9404 0000038 247.1321 209.4669  1.00272286 16588
Epoch: 2026-06-21T22:01Z
TLE epoch observation values (Epoch: 2026-06-21T22:01:44.056Z)
Latitude
0.02192°
Longitude
145.00437°
Altitude
35,786.081 km
Speed
3.075 km/s
True Right ascension
01h 42m 11s
True Declination
0° 01' 19"
Sunlit
Object was in daylight at epoch
Visualization orbit readout
Latitude
Unknown
Longitude
Unknown
Altitude
Unknown
Speed
Unknown
Apparent Right ascension
Unknown
Apparent Declination
Unknown
Sunlit
N/A
Visualization observer readout
Local Sidereal Time
21:42:06
Azimuth
Unknown
Elevation
Unknown
Doppler factor
Unknown
Orbital elements
Apogee altitude
35,787.685 km
Perigee altitude
35,787.365 km
Semi-major axis
42,165.662 km
Eccentricity
0
Inclination
0.0163°
RAAN
288.9404°
Arg. of periapsis
247.1321°
True anomaly
209.46669°
Mean anomaly
209.4669°
Eccentric anomaly
209.46679°
Mean motion
0.25067 °/min
Orbital period
1,436.14 mins
BSTAR
0
Loading maneuver chart data...
Computing Atmospheric mass density...
Loading historical data...
Loading historical data...
Loading historical data...
Loading historical data...
Loading historical data...
Loading historical data...
Loading historical data...
Other satellites on launch #123 in the year 2021 (2021-12-13 UTC)

Documentation

Showing up to 5 results
|